Hourly Weather Puente del Inca

Today, 8 May, Saturday

Time Temperature Precipitation Wind Pressure Humidity
00:00 -2°C° 0 mm 2 mps 484 mmHg 46%
01:00 -2°C° 0 mm 2 mps 484 mmHg 44%
02:00 -2°C° 0 mm 2 mps 484 mmHg 42%
03:00 -2°C° 0 mm 2 mps 484 mmHg 39%
04:00 -2°C° 0 mm 2 mps 484 mmHg 37%
05:00 -2°C° 0 mm 2 mps 484 mmHg 33%
06:00 -2°C° 0 mm 2 mps 485 mmHg 30%
07:00 0°C° 0 mm 1 mps 485 mmHg 27%
08:00 -1°C° 0 mm 2 mps 485 mmHg 24%
09:00 -1°C° 0 mm 2 mps 486 mmHg 21%
10:00 +1°C° 0 mm 2 mps 486 mmHg 19%
11:00 +1°C° 0 mm 2 mps 486 mmHg 20%
12:00 +1°C° 0 mm 3 mps 486 mmHg 22%
13:00 +1°C° 0 mm 3 mps 486 mmHg 24%
14:00 0°C° 0 mm 3 mps 486 mmHg 29%
15:00 0°C° 0 mm 3 mps 485 mmHg 34%
16:00 -1°C° 0 mm 3 mps 485 mmHg 40%
17:00 -1°C° 0 mm 2 mps 485 mmHg 42%
18:00 -1°C° 0 mm 2 mps 485 mmHg 45%
19:00 0°C° 0 mm 1 mps 485 mmHg 48%
20:00 0°C° 0 mm 1 mps 485 mmHg 46%
21:00 0°C° 0 mm 1 mps 485 mmHg 44%
22:00 0°C° 0 mm 1 mps 484 mmHg 41%
23:00 0°C° 0 mm 1 mps 484 mmHg 39%

Tomorrow, 9 May, Sunday

Time Temperature Precipitation Wind Pressure Humidity
00:00 0°C° 0 mm 1 mps 484 mmHg 36%
01:00 0°C° 0 mm 1 mps 484 mmHg 33%
02:00 0°C° 0 mm 1 mps 484 mmHg 33%
03:00 0°C° 0 mm 1 mps 484 mmHg 33%
04:00 0°C° 0 mm 1 mps 484 mmHg 32%
05:00 -1°C° 0 mm 1 mps 484 mmHg 33%
06:00 -1°C° 0 mm 1 mps 484 mmHg 33%
07:00 -3°C° 0 mm 2 mps 484 mmHg 33%
08:00 -2°C° 0 mm 2 mps 485 mmHg 31%
09:00 -2°C° 0 mm 2 mps 485 mmHg 30%
10:00 -2°C° 0 mm 2 mps 486 mmHg 28%
11:00 -1°C° 0 mm 2 mps 486 mmHg 28%
12:00 -1°C° 0 mm 3 mps 485 mmHg 28%
13:00 0°C° 0 mm 3 mps 485 mmHg 28%
14:00 -1°C° 0 mm 3 mps 485 mmHg 31%
15:00 -1°C° 0 mm 2 mps 485 mmHg 34%
16:00 -1°C° 0 mm 2 mps 485 mmHg 36%
17:00 -2°C° 0 mm 2 mps 485 mmHg 41%
18:00 0°C° 0 mm 1 mps 485 mmHg 45%
19:00 -1°C° 0 mm 1 mps 485 mmHg 50%
20:00 -1°C° 0 mm 1 mps 485 mmHg 51%
21:00 -1°C° 0 mm 1 mps 485 mmHg 53%
22:00 -1°C° 0 mm 1 mps 485 mmHg 54%
23:00 -2°C° 0 mm 1 mps 485 mmHg 60%

Day after tomorrow, 10 May, Monday

Time Temperature Precipitation Wind Pressure Humidity
00:00 -4°C° 0 mm 2 mps 485 mmHg 66%
01:00 -4°C° 0 mm 2 mps 484 mmHg 72%
02:00 -5°C° 0 mm 2 mps 484 mmHg 73%
03:00 -5°C° 0 mm 2 mps 484 mmHg 75%
04:00 -5°C° 0 mm 2 mps 484 mmHg 76%
05:00 -5°C° 0 mm 2 mps 484 mmHg 75%
06:00 -5°C° 0 mm 2 mps 484 mmHg 75%
07:00 -5°C° 0 mm 2 mps 484 mmHg 74%
08:00 -2°C° 0 mm 1 mps 485 mmHg 64%
09:00 -1°C° 0 mm 1 mps 486 mmHg 55%
10:00 0°C° 0 mm 1 mps 486 mmHg 46%
11:00 -1°C° 0 mm 2 mps 486 mmHg 42%
12:00 +1°C° 0 mm 2 mps 486 mmHg 38%
13:00 +1°C° 0 mm 2 mps 486 mmHg 34%
14:00 +1°C° 0 mm 2 mps 486 mmHg 35%
15:00 +1°C° 0 mm 2 mps 486 mmHg 37%
16:00 +1°C° 0 mm 2 mps 486 mmHg 38%
17:00 +1°C° 0 mm 1 mps 486 mmHg 43%
18:00 0°C° 0 mm 1 mps 486 mmHg 48%
19:00 0°C° 0 mm 1 mps 485 mmHg 54%
20:00 0°C° 0 mm 1 mps 485 mmHg 52%
21:00 0°C° 0 mm 1 mps 485 mmHg 51%
22:00 -1°C° 0 mm 0 mps 485 mmHg 49%
23:00 0°C° 0 mm 1 mps 485 mmHg 47%

11 May, Tuesday

Time Temperature Precipitation Wind Pressure Humidity
00:00 0°C° 0 mm 1 mps 485 mmHg 45%
01:00 -1°C° 0 mm 1 mps 484 mmHg 43%
02:00 -1°C° 0 mm 1 mps 484 mmHg 42%
03:00 -1°C° 0 mm 1 mps 484 mmHg 40%
04:00 -3°C° 0 mm 2 mps 483 mmHg 39%
05:00 -3°C° 0 mm 2 mps 484 mmHg 38%
06:00 -3°C° 0 mm 2 mps 484 mmHg 37%
07:00 -3°C° 0 mm 2 mps 484 mmHg 36%
08:00 -2°C° 0 mm 2 mps 485 mmHg 30%
09:00 -1°C° 0 mm 2 mps 486 mmHg 23%
10:00 +1°C° 0 mm 2 mps 487 mmHg 17%
11:00 +1°C° 0 mm 3 mps 487 mmHg 17%
12:00 +1°C° 0 mm 3 mps 487 mmHg 17%
13:00 +1°C° 0 mm 3 mps 487 mmHg 17%
14:00 +1°C° 0 mm 3 mps 487 mmHg 18%
15:00 +1°C° 0 mm 3 mps 487 mmHg 19%
16:00 +1°C° 0 mm 3 mps 487 mmHg 20%
17:00 +1°C° 0 mm 2 mps 486 mmHg 24%
18:00 -1°C° 0 mm 2 mps 486 mmHg 28%
19:00 0°C° 0 mm 1 mps 486 mmHg 32%
20:00 0°C° 0 mm 1 mps 486 mmHg 28%
21:00 0°C° 0 mm 1 mps 486 mmHg 24%
22:00 0°C° 0 mm 1 mps 486 mmHg 20%
23:00 0°C° 0 mm 1 mps 486 mmHg 17%

12 May, Wednesday

Time Temperature Precipitation Wind Pressure Humidity
00:00 -2°C° 0 mm 2 mps 486 mmHg 14%
01:00 -2°C° 0 mm 2 mps 486 mmHg 11%
02:00 -2°C° 0 mm 2 mps 486 mmHg 10%
03:00 -2°C° 0 mm 2 mps 486 mmHg 8%
04:00 -2°C° 0 mm 2 mps 486 mmHg 7%
05:00 -2°C° 0 mm 2 mps 486 mmHg 8%
06:00 -2°C° 0 mm 2 mps 487 mmHg 8%
07:00 -2°C° 0 mm 2 mps 487 mmHg 9%
08:00 +1°C° 0 mm 2 mps 488 mmHg 9%
09:00 +2°C° 0 mm 2 mps 489 mmHg 10%
10:00 +4°C° 0 mm 2 mps 490 mmHg 10%
11:00 +4°C° 0 mm 2 mps 490 mmHg 12%
12:00 +5°C° 0 mm 2 mps 490 mmHg 13%
13:00 +5°C° 0 mm 2 mps 490 mmHg 14%
14:00 +5°C° 0 mm 2 mps 489 mmHg 17%
15:00 +5°C° 0 mm 1 mps 489 mmHg 20%
16:00 +5°C° 0 mm 1 mps 488 mmHg 23%
17:00 +4°C° 0 mm 1 mps 488 mmHg 26%
18:00 +3°C° 0 mm 1 mps 488 mmHg 29%
19:00 +1°C° 0 mm 1 mps 487 mmHg 33%
20:00 +1°C° 0 mm 1 mps 487 mmHg 33%
21:00 +1°C° 0 mm 1 mps 487 mmHg 32%
22:00 -1°C° 0 mm 2 mps 487 mmHg 32%
23:00 -1°C° 0 mm 2 mps 487 mmHg 32%

13 May, Thursday

Time Temperature Precipitation Wind Pressure Humidity
00:00 -2°C° 0 mm 2 mps 487 mmHg 31%
01:00 -2°C° 0 mm 2 mps 487 mmHg 31%
02:00 -2°C° 0 mm 2 mps 486 mmHg 31%
03:00 -2°C° 0 mm 3 mps 486 mmHg 31%
04:00 -4°C° 0 mm 3 mps 486 mmHg 30%
05:00 -4°C° 0 mm 3 mps 486 mmHg 32%
06:00 -4°C° 0 mm 3 mps 486 mmHg 33%
07:00 -4°C° 0 mm 3 mps 486 mmHg 34%
08:00 -1°C° 0 mm 3 mps 487 mmHg 32%
09:00 0°C° 0 mm 3 mps 488 mmHg 30%
10:00 +2°C° 0 mm 3 mps 489 mmHg 27%
11:00 +2°C° 0 mm 3 mps 489 mmHg 30%
12:00 +2°C° 0 mm 3 mps 489 mmHg 33%
13:00 +2°C° 0 mm 3 mps 489 mmHg 36%
14:00 +2°C° 0 mm 3 mps 488 mmHg 41%
15:00 +1°C° 0 mm 3 mps 488 mmHg 46%
16:00 0°C° 0 mm 3 mps 488 mmHg 51%
17:00 0°C° 0 mm 3 mps 487 mmHg 56%
18:00 -1°C° 0 mm 3 mps 487 mmHg 60%
19:00 -2°C° 0 mm 2 mps 487 mmHg 65%
20:00 -2°C° 0 mm 2 mps 487 mmHg 62%
21:00 -2°C° 0 mm 2 mps 487 mmHg 59%
22:00 -2°C° 0 mm 2 mps 487 mmHg 56%
23:00 -2°C° 0 mm 2 mps 487 mmHg 56%
Show more

We Need Your Consent

Meteoprog and our Service Providers may store and access personal data such as cookies, device identifiers or other similar technologies on your device and process such data to personalise content and ads, as well as provide social media features and to analyse the traffic.

  • Store and/or access information on your device

    Cookies, device identifiers or other information can be stored or accessed on your device for the purposes indicated above.

  • Personalised ads and content, ad and content measurement, audience insights, and products development

    Ads and content can be personalised based on a profile. More data can be added to better personalise ads and content. Ad and content performance can be measured. Insights about the audience who saw the ads and content can be derived. Such data can be used to develop or improve user’s experience, systems and software.

By clicking ‘I Agree’ you will allow the use of indicated cookies, device identifiers, web beacons or other similar technologies. Your settings can be changed in the browser on your device.

For certain purposes, legitimate interests may be relied on, rather than consent. You can read more about this in our Privacy and Cookie Policy.